This is the latest recevied weather packets stored in our database for station/object DO6GZ-WX. If no packets are shown the sender has not sent any weather packets the latest 10 day(s).
| Time | Temp. | Humidity | Pressure | Rain* | Wind** | Luminosity | Snow |
|---|---|---|---|---|---|---|---|
| 1777727527 | 25.56° C | 32% | 1018.3 hPa | 0 mm | - | - | - |
| 1777726900 | 26.11° C | 28% | 1018.3 hPa | 0 mm | - | - | - |
| 1777726272 | 26.11° C | 35% | 1018.5 hPa | 0 mm | - | - | - |
| 1777725644 | 26.11° C | 31% | 1018.6 hPa | 0 mm | - | - | - |
| 1777725017 | 25.56° C | 29% | 1018.7 hPa | 0 mm | - | - | - |
| 1777724390 | 25.56° C | 30% | 1018.8 hPa | 0 mm | - | - | - |
| 1777723762 | 25.56° C | 37% | 1019 hPa | 0 mm | - | - | - |
| 1777723134 | 25° C | 38% | 1019.2 hPa | 0 mm | - | - | - |
| 1777722506 | 25° C | 40% | 1019.3 hPa | 0 mm | - | - | - |
| 1777721879 | 25° C | 39% | 1019.5 hPa | 0 mm | - | - | - |
| 1777721254 | 24.44° C | 40% | 1019.7 hPa | 0 mm | - | - | - |
| 1777720624 | 24.44° C | 42% | 1019.8 hPa | 0 mm | - | - | - |
| 1777719996 | 24.44° C | 42% | 1020 hPa | 0 mm | - | - | - |
| 1777719369 | 24.44° C | 41% | 1020.1 hPa | 0 mm | - | - | - |
| 1777718741 | 23.89° C | 41% | 1020.1 hPa | 0 mm | - | - | - |
| 1777718114 | 23.89° C | 42% | 1020.2 hPa | 0 mm | - | - | - |
| 1777717486 | 23.89° C | 45% | 1020.3 hPa | 0 mm | - | - | - |
| 1777716859 | 23.33° C | 44% | 1020.5 hPa | 0 mm | - | - | - |
| 1777716231 | 23.33° C | 44% | 1020.9 hPa | 0 mm | - | - | - |
| 1777715603 | 23.33° C | 44% | 1021 hPa | 0 mm | - | - | - |
| 1777714976 | 23.89° C | 42% | 1021.1 hPa | 0 mm | - | - | - |
| 1777714348 | 25° C | 40% | 1021.2 hPa | 0 mm | - | - | - |
| 1777713723 | 25° C | 40% | 1021.2 hPa | 0 mm | - | - | - |
| 1777713093 | 23.89° C | 44% | 1021.3 hPa | 0 mm | - | - | - |
| 1777712466 | 23.89° C | 42% | 1021.4 hPa | 0 mm | - | - | - |
* Rain latest hour (hover to see other rain measurements)
** Current wind speed in m/s (hover to see current wind gust speed)